Simultaneous Nadir Overpasses (SNOs) Predictions

Prediction of SNOs between GOES-16 and FY3D Satellite Orbit:

Table of predicted SNOs for the next 14.0 days since TLE Epoch: 1/11/2020
Index Date Time (GOES-16) GOES-16 Lat,Lon FY3D Lat,Lon Distance(km) Time Diff (sec)
1 01/12/2020 18:32:59 -0.05, -75.23 -0.15, -75.60 42.76 80
2 01/13/2020 18:11:23 -0.04, -75.24 0.88, -71.02 479.74 80
3 01/15/2020 06:35:35 0.05, -75.25 0.26, -76.23 111.19 80
4 01/16/2020 06:13:59 0.04, -75.26 -0.77, -71.66 411.52 80
5 01/17/2020 18:38:18 -0.05, -75.29 -0.42, -76.89 182.27 80
6 01/18/2020 18:16:43 -0.05, -75.30 0.61, -72.31 340.95 80
7 01/20/2020 06:40:53 0.06, -75.33 0.57, -77.50 248.62 80
8 01/21/2020 06:19:18 0.06, -75.35 -0.46, -72.93 274.76 80
9 01/22/2020 18:43:38 -0.07, -75.38 -0.67, -78.17 318.37 80
10 01/23/2020 18:22:03 -0.07, -75.40 0.36, -73.60 205.50 80




NCC Satellite Simultaneous Nadir Overpasses (SNOs) Prediction Service
